This is the latest recevied weather packets stored in our database for station/object EA1HTW-1. If no packets are shown the sender has not sent any weather packets the latest 10 day(s).
| Time | Temp. | Humidity | Pressure | Rain* | Wind** | Luminosity | Snow |
|---|---|---|---|---|---|---|---|
| 1777845563 | 11.11° C | 95% | 987 hPa | 0 mm | - | - | - |
| 1777843857 | 11.11° C | 95% | 986.8 hPa | 0 mm | - | - | - |
| 1777843763 | 11.11° C | 95% | 986.8 hPa | 0 mm | - | - | - |
| 1777843163 | 11.11° C | 95% | 986.8 hPa | 0 mm | - | - | - |
| 1777842564 | 11.11° C | 95% | 986.7 hPa | 0 mm | - | - | - |
| 1777841963 | 11.11° C | 95% | 986.7 hPa | 0 mm | - | - | - |
| 1777840162 | 11.11° C | 95% | 986.2 hPa | 0 mm | - | - | - |
| 1777839564 | 11.11° C | 94% | 986 hPa | 0 mm | - | - | - |
| 1777837764 | 11.11° C | 94% | 985.7 hPa | 0 mm | - | - | - |
| 1777837163 | 11.11° C | 93% | 985.6 hPa | 0.25 mm | - | - | - |
| 1777836678 | 11.11° C | 93% | 985.6 hPa | 1.02 mm | - | - | - |
| 1777836563 | 11.11° C | 93% | 985.6 hPa | 1.02 mm | - | - | - |
| 1777835963 | 11.11° C | 93% | 985.6 hPa | 2.03 mm | - | - | - |
| 1777834764 | 11.11° C | 93% | 985.3 hPa | 4.83 mm | - | - | - |
| 1777834163 | 11.11° C | 92% | 985.3 hPa | 4.83 mm | - | - | - |
| 1777832964 | 11.67° C | 91% | 985.4 hPa | 3.81 mm | - | - | - |
| 1777832361 | 11.67° C | 90% | 985.5 hPa | 2.79 mm | - | - | - |
| 1777831764 | 11.67° C | 89% | 985.4 hPa | 1.27 mm | - | - | - |
| 1777831164 | 11.67° C | 89% | 985.4 hPa | 0 mm | - | - | - |
| 1777830563 | 11.67° C | 88% | 985.3 hPa | 0 mm | - | - | - |
| 1777829363 | 12.22° C | 85% | 985.1 hPa | 0 mm | - | - | - |
| 1777828762 | 13.89° C | 86% | 984.8 hPa | 0 mm | - | - | - |
| 1777828163 | 13.33° C | 84% | 984.7 hPa | 0 mm | - | - | - |
| 1777827562 | 13.89° C | 85% | 984.6 hPa | 0 mm | - | - | - |
| 1777826963 | 13.89° C | 85% | 984.4 hPa | 0.25 mm | - | - | - |
* Rain latest hour (hover to see other rain measurements)
** Current wind speed in m/s (hover to see current wind gust speed)